Regional Weather Roundup
Issued by NWS

Home | Current Version | Previous Version | Text Only | Print | Product List | Glossary Off
Versions: 1 2 3 4 5 6 7 8 9 10 11 12 13 14 15 16 17 18 19 20 21 22 23 24 25 26 27 28 29 30 31 32 33 34 35 36 37 38 39 40 41 42 43 44 45 46 47 48 49 50

000
ASUS45 KPSR 120200
RWRAZ

PRELIMINARY ARIZONA REGIONAL HOURLY WEATHER ROUNDUP
NATIONAL WEATHER SERVICE PHOENIX AZ
700 PM MST FRI JUL 11 2014

NOTE: FAIR INDICATES FEW OR NO CLOUDS BELOW 12,000 FEET WITH NO
SIGNIFICANT WEATHER AND/OR OBSTRUCTIONS TO VISIBILITY.

AZZ001>003-036-120300-
NORTHWEST ARIZONA

CITY           SKY/WX    TMP DP  RH WIND       PRES   REMARKS
KINGMAN        MOCLDY    91  33  12 SW13      29.99R
$$

AZZ004>008-015-016-018-120300-
NORTH CENTRAL ARIZONA

CITY           SKY/WX    TMP DP  RH WIND       PRES   REMARKS
GRAND CANYON   CLEAR     78  44  29 N3        30.23R
WILLIAMS         N/A     77  45  31 SW7       30.31R
PRESCOTT       PTCLDY    85  41  21 W8        30.12R
FLAGSTAFF      PTCLDY    77  46  33 W7        30.27R
PAYSON         MOCLDY    75  57  53 N10       30.15R
PAGE           CLEAR     94  42  16 W8G16     30.00R
$$

AZZ009>014-017-120300-
NORTHEAST ARIZONA

CITY           SKY/WX    TMP DP  RH WIND       PRES   REMARKS
WINSLOW        NOT AVBL
SAINT JOHNS    CLOUDY    71  55  56 SE5       30.20F
WINDOW ROCK    CLOUDY    65  55  70 SW6       30.29S
$$

AZZ023-120300-
GREATER PHOENIX AREA

CITY           SKY/WX    TMP DP  RH WIND       PRES   REMARKS
PHOENIX        MOCLDY   104  50  16 W10       29.78R HX 101
GLENDALE       PTCLDY   104  48  15 S14G21    29.79R HX 100
DEER VALLEY    CLEAR    101  50  18 SW14      29.80R
SCOTTSDALE     CLEAR    102  51  18 SW8       29.83R
MESA-FALCON    PTCLDY   102  52  18 W7        29.80S HX 100
CHANDLER       MOCLDY   102  50  17 W9        29.80R
$$

AZZ027-028-120300-
SOUTHWEST MARICOPA COUNTY AND PINAL COUNTY

CITY           SKY/WX    TMP DP  RH WIND       PRES   REMARKS
CASA GRANDE    PTCLDY   100  52  19 W9        29.84R
GILA BEND      PTCLDY   102  39  11 W12       29.81R
$$

AZZ503-504-507>509-120300-
SOUTHEAST ARIZONA

CITY           SKY/WX    TMP DP  RH WIND       PRES   REMARKS
TUCSON         CLOUDY    91  59  33 SW9       29.96R
DAVIS-MONTHAN  MOCLDY    94  56  27 W13       29.95R
RYAN FIELD       N/A     88  61  40 SW22G35   29.94R
NOGALES        MOCLDY    76  61  59 SW5       30.06R
SIERRA VISTA   MOCLDY    86  57  37 W18       30.08S
SAFFORD        CLOUDY    84  57  39 SE10      29.97R
$$

AZZ020-021-025-026-031-120300-
SOUTHWEST ARIZONA

CITY           SKY/WX    TMP DP  RH WIND       PRES   REMARKS
YUMA           NOT AVBL
$$

CAZ031-033-041-043-047-048-061-120300-
SOUTHERN CALIFORNIA

CITY           SKY/WX    TMP DP  RH WIND       PRES   REMARKS
DOWNTOWN L.A.  SUNNY     72  60  66 VRB3      29.96R
L.A. AIRPORT   MOSUNNY   70  61  73 W17       29.97S
SAN DIEGO      PTSUNNY   73  61  65 NW9       29.98S
BURBANK        SUNNY     77  56  48 S9        29.95R
ONTARIO        PTSUNNY   82  55  39 W13       29.94S
RIVERSIDE      SUNNY     82  56  40 W13       29.94R
PALM SPRINGS   PTSUNNY   99  51  19 NW21G28   29.78S
EL CENTRO NAS  MOCLDY    97  43  15 W23G32    29.76R
IMPERIAL       LGT RAIN  96  44  16 W21G28    29.75R
BLYTHE         MOCLDY   102  38  11 SW12      29.76S
$$

NVZ020-UTZ003-120300-
SOUTHERN NEVADA-UTAH

CITY           SKY/WX    TMP DP  RH WIND       PRES   REMARKS
LAS VEGAS      NOT AVBL
SALT LAKE CITY PTCLDY    84  56  38 N10       30.05R
$$

NMZ009-TXZ055-120300-
NEW MEXICO-WEST TEXAS

CITY           SKY/WX    TMP DP  RH WIND       PRES   REMARKS
ALBUQUERQUE    LGT RAIN  76  57  51 SW15G29   30.16R
EL PASO        PTCLDY    92  43  18 E13       29.98R
$$


........................KEY........................
SKY/WX - SKY CONDITION/WEATHER
TMP    - TEMPERATURE IN FAHRENHEIT
DP     - DEW POINT IN FAHRENHEIT
RH     - RELATIVE HUMIDITY IN PERCENT
WIND   - DIRECTION AND SPEED IN MILES PER HOUR (MPH)
VRB    - VARIABLE WIND DIRECTION
PRES   - MEAN SEA LEVEL PRESSURE IN INCHES OF MERCURY
         F - FALLING PRESSURE   R - RISING PRESSURE
         S - STEADY PRESSURE
VSB    - VISIBILITY IN MILES
HX     - HEAT INDEX IN FAHRENHEIT
WCI    - WIND CHILL INDEX IN FAHRENHEIT
TC     - TEMPERATURE IN CELSIUS WHICH IS ALSO KNOWN AS
         TEMPERATURE IN CENTIGRADE
AFB    - AIR FORCE BASE
         LUKE AFB IS LUKE AIR FORCE BASE
         DAVIS-MONTHAN IS DAVIS-MONTHAN AIR FORCE BASE
NAS    - NAVAL AIR STATION
         EL CENTRO NAS IS EL CENTRO NAVAL AIR STATION
N/A    - NOT AVAILABLE


USA.gov is the U.S. government's official web portal to all federal, state and local government web resources and services.